Regional Weather Roundup
Issued by NWS

Home | Current Version | Previous Version | Graphics & Text | Print | Product List | Glossary On
Versions: 1 2 3 4 5 6 7 8 9 10 11 12 13 14 15 16 17 18 19 20 21 22 23 24 25 26 27 28 29 30 31 32 33 34 35 36 37 38 39 40 41 42 43 44 45 46 47 48 49 50
000
ASUS43 KOAX 290602
RWRNE

WEATHER ROUNDUP FOR NEBRASKA
NATIONAL WEATHER SERVICE OMAHA NE
100 AM CDT WED JUL 29 2015

NOTES: SATELLITE DATA IS BEING USED TO AUGMENT CLOUD COVER ABOVE
       12000 FEET.
       "FAIR" INDICATES FEW OR NO CLOUDS BELOW 12,000 FEET WITH NO
       SIGNIFICANT WEATHER AND/OR OBSTRUCTIONS TO VISIBILITY.

  * THESE STATIONS DO NOT REPORT WEATHER SUCH AS RAIN...SNOW OR FOG.

NEZ001>004-019>022-054>056-290700-
NEBRASKA PANHANDLE

CITY           SKY/WX    TMP DP  RH WIND       PRES   REMARKS
SCOTTSBLUFF    CLEAR     58  39  49 CALM      30.24R
6HR MIN TEMP:  56; 6HR MAX TEMP:  83;

ALLIANCE       CLEAR     49  43  80 CALM      30.23R
6HR MIN TEMP:  49; 6HR MAX TEMP:  80;

CHADRON        CLEAR     50  43  77 CALM      30.22R
6HR MIN TEMP:  48; 6HR MAX TEMP:  80;

KIMBALL        PTCLDY    55  42  61 NE3       30.26R
SIDNEY         CLEAR     53  41  63 NW7       30.24S
6HR MIN TEMP:  52; 6HR MAX TEMP:  81;

$$

NEZ057>060-069>072-079>082-290700-
SOUTHWEST NEBRASKA

CITY           SKY/WX    TMP DP  RH WIND       PRES   REMARKS
NORTH PLATTE   CLEAR     57  51  80 CALM      30.15R
6HR MIN TEMP:  56; 6HR MAX TEMP:  81;

IMPERIAL       CLEAR     63  50  62 NW3       30.17S
6HR MIN TEMP:  61; 6HR MAX TEMP:  83;

MCCOOK         PTCLDY    61  52  72 CALM      30.13R
6HR MIN TEMP:  61; 6HR MAX TEMP:  85;

$$

NEZ005>010-023>029-035>040-094-290700-
NORTH CENTRAL NEBRASKA

CITY           SKY/WX    TMP DP  RH WIND       PRES   REMARKS
VALENTINE      CLEAR     56  47  71 NW6       30.16R
6HR MIN TEMP:  56; 6HR MAX TEMP:  82;

AINSWORTH      CLEAR     62  49  63 NW3       30.16R
BROKEN BOW     CLEAR     59  48  67 N9        30.13R
6HR MIN TEMP:  58; 6HR MAX TEMP:  84;

O`NEILL        CLEAR     62  55  80 N7        30.13R
ORD            CLEAR     57  54  89 NW5       30.11R
6HR MIN TEMP:  57; 6HR MAX TEMP:  82;

$$

NEZ041-046>049-061>064-073>077-083>087-290700-
SOUTH CENTRAL NEBRASKA

CITY           SKY/WX    TMP DP  RH WIND       PRES   REMARKS
GRAND ISLAND   CLEAR     60  55  83 NE6       30.11R
6HR MIN TEMP:  60; 6HR MAX TEMP:  81;

AURORA         CLEAR     61  59  92 N6        30.10R
HASTINGS       CLEAR     65  55  70 NE7       30.10R
6HR MIN TEMP:  65; 6HR MAX TEMP:  80;

KEARNEY *      CLEAR     64  55  72 N6        30.11R
$$

NEZ011>018-030>034-042>045-290700-
NORTHEAST NEBRASKA

CITY           SKY/WX    TMP DP  RH WIND       PRES   REMARKS
NORFOLK        CLEAR     59  57  93 W3        30.08R
6HR MIN TEMP:  58; 6HR MAX TEMP:  81;

BLAIR          MOCLDY    67  61  79 CALM      30.07R
COLUMBUS *     CLEAR     61  54  77 N5        30.09R
FREMONT        PTCLDY    67  61  81 CALM      30.07R
TEKAMAH        CLEAR     65  63  93 NW3       30.05R
6HR MIN TEMP:  65; 6HR MAX TEMP:  78;

$$

NEZ050>053-065>068-078-088>093-290700-
SOUTHEAST NEBRASKA

CITY           SKY/WX    TMP DP  RH WIND       PRES   REMARKS
LINCOLN        PTCLDY    67  63  87 CALM      30.08R
6HR MIN TEMP:  67; 6HR MAX TEMP:  80;

OMAHA EPPLEY   MOCLDY    70  64  81 NW5       30.06R
6HR MIN TEMP:  69; 6HR MAX TEMP:  79;

FALLS CITY     TSTM      71  71 100 N6        30.01R
6HR MIN TEMP:  71; 6HR MAX TEMP:  92; 6HR PCP:  0.48;

$$

NEZ044-045-051>053-067-290700-
OMAHA AREA

CITY           SKY/WX    TMP DP  RH WIND       PRES   REMARKS
OMAHA EPPLEY   MOCLDY    70  64  81 NW5       30.06R
6HR MIN TEMP:  69; 6HR MAX TEMP:  79;

BLAIR          MOCLDY    67  61  79 CALM      30.07R
FREMONT        PTCLDY    67  61  81 CALM      30.07R
$$


USA.gov is the U.S. government's official web portal to all federal, state and local government web resources and services.